WATER LEVELS

Guaranteed water level and forecast    Ústí nad Labem-Střekov

Guaranteed water level
125 cm
on 15.11.2018 more information
Forecast
125 cm
on 16.11.2018 07:00
Tendency
steady state
on 16.11.2018 metodika tendence
Forecast
(Source data ČHMÚ a Povodí Labe)

Ústí nad Labem

Date and time (UTC) H (cm) Q (m3/s)
15. 11. 2018 12:10 136 89
15. 11. 2018 12:00 136 89
15. 11. 2018 11:00 136 89
15. 11. 2018 10:00 136 89
15. 11. 2018 09:00 137 91
15. 11. 2018 08:00 137 91
15. 11. 2018 07:00 137 91
15. 11. 2018 06:00 136 89
15. 11. 2018 05:00 136 89
15. 11. 2018 04:00 133 86
15. 11. 2018 03:00 133 86
15. 11. 2018 02:00 133 86
15. 11. 2018 01:00 130 82
15. 11. 2018 00:00 130 82

H - vodni stav, Q - discharge
more information

Mělník

Date and time (UTC) H (cm) Q (m3/s)
15. 11. 2018 12:10 265 -
15. 11. 2018 12:00 265 -
15. 11. 2018 11:00 263 -
15. 11. 2018 10:00 257 -
15. 11. 2018 09:00 255 -
15. 11. 2018 08:00 256 -
15. 11. 2018 07:00 259 75
15. 11. 2018 06:00 262 -
15. 11. 2018 05:00 259 -
15. 11. 2018 04:00 256 -
15. 11. 2018 03:00 260 -
15. 11. 2018 02:00 262 -
15. 11. 2018 01:00 260 -
15. 11. 2018 00:00 255 -

H - vodni stav, Q - discharge
more information

Kostelec nad Labem

Date and time (UTC) H (cm) Q (m3/s)
15. 11. 2018 12:15 - 10
15. 11. 2018 12:00 396 18
15. 11. 2018 11:00 398 23
15. 11. 2018 10:00 397 34
15. 11. 2018 09:00 402 33
15. 11. 2018 08:00 398 7
15. 11. 2018 07:00 396 7
15. 11. 2018 06:00 397 -
15. 11. 2018 05:00 394 29
15. 11. 2018 04:00 404 33
15. 11. 2018 03:00 396 9
15. 11. 2018 02:00 394 7
15. 11. 2018 01:00 392 17
15. 11. 2018 00:00 402 43

H - vodni stav, Q - discharge
more information

Přelouč

Date and time (UTC) H (cm) Q (m3/s)
15. 11. 2018 12:10 28 11
15. 11. 2018 12:00 28 11
15. 11. 2018 11:00 30 12
15. 11. 2018 10:00 30 12
15. 11. 2018 09:00 30 12
15. 11. 2018 08:00 30 12
15. 11. 2018 07:00 30 12
15. 11. 2018 06:00 30 12
15. 11. 2018 05:00 29 11
15. 11. 2018 04:00 29 11
15. 11. 2018 03:00 29 11
15. 11. 2018 02:00 29 11
15. 11. 2018 01:00 29 11
15. 11. 2018 00:00 28 11

H - vodni stav, Q - discharge
more information

Praha-Chuchle

Date and time (UTC) H (cm) Q (m3/s)
15. 11. 2018 12:10 46 52
15. 11. 2018 12:00 46 52
15. 11. 2018 11:00 46 52
15. 11. 2018 10:00 45 49
15. 11. 2018 09:00 43 44
15. 11. 2018 08:00 43 44
15. 11. 2018 07:00 45 49
15. 11. 2018 06:00 45 49
15. 11. 2018 05:00 45 49
15. 11. 2018 04:00 45 49
15. 11. 2018 03:00 45 49
15. 11. 2018 02:00 45 49
15. 11. 2018 01:00 45 49
15. 11. 2018 00:00 45 49

H - vodni stav, Q - discharge
more information

České Budějovice

Date and time (UTC) H (cm) Q (m3/s)
15. 11. 2018 12:10 99 11
15. 11. 2018 12:00 100 11
15. 11. 2018 11:00 100 11
15. 11. 2018 10:00 100 12
15. 11. 2018 09:00 100 9
15. 11. 2018 08:00 99 11
15. 11. 2018 07:00 101 14
15. 11. 2018 06:00 102 14
15. 11. 2018 05:00 99 11
15. 11. 2018 04:00 101 11
15. 11. 2018 03:00 98 10
15. 11. 2018 02:00 101 13
15. 11. 2018 01:00 101 12
15. 11. 2018 00:00 100 9

H - vodni stav, Q - discharge
more information
Source data
Labe Basin Vltava Basin ČHMÚ